Tracking 25709 objects as of 24-May-2022
HD Live streaming from Space Station
objects crossing your sky now

SPACEBEE-54

Track SPACEBEE-54 now!
10-day predictions


NORAD ID: 47460
Int'l Code: 2021-006AZ
Perigee: 504.8 km
Apogee: 516.2 km
Inclination: 97.4 °
Period: 94.7 minutes
Semi major axis: 6881 km
RCS: Unknown
Launch date: January 24, 2021
Source: United States (US)
Launch site: ()
aabbcc
Your satellite tracking list
Your tracking list is empty




NASA's NSSDC Master Catalog

Two Line Element Set (TLE):
1 47460U 21006AZ  22143.43998983  .00034394  00000-0  15548-2 0  9993
2 47460  97.4423 203.9990 0008285  12.6633 347.4809 15.20826065 73558
Source of the keplerian elements: AFSPC